Regional Weather Roundup
Issued by NWS

Home | Current Version | Previous Version | Graphics & Text | Print | Product List | Glossary On
Versions: 1 2 3 4 5 6 7 8 9 10 11 12 13 14 15 16 17 18 19 20 21 22 23 24 25 26 27 28 29 30 31 32 33 34 35 36 37 38 39 40 41 42 43 44 45 46 47 48 49 50
000
ASUS45 KABQ 300410
RWRNM
NEW MEXICO REGIONAL WEATHER ROUNDUP
NATIONAL WEATHER SERVICE ALBUQUERQUE NM
1000 PM MDT SAT APR 29 2017

NOTE: "FAIR" MEANS FEW OR NO CLOUDS BELOW 12,000 FEET AGL WITH NO
       SIGNIFICANT WEATHER OR OBSTRUCTIONS TO VISION.

      THIS PRODUCT IS RELEASED AS TWO VERSIONS.  ONE VERSION NEAR
      THE TOP OF THE HOUR CONTAINING PRELIMINARY DATA FROM ALBUQUERQUE
      AND OTHER STATIONS.  A FINAL VERSION WITH ADDITIONAL DATA IS
      ISSUED ABOUT 10 MINUTES AFTER THE HOUR.

NMZ501-503-504-510>518-300500-
NORTHWEST PLATEAU/NORTHCENTRAL MOUNTAINS

CITY           SKY/WX    TMP DP  RH WIND       PRES   REMARKS
FARMINGTON     FAIR      40  25  55 W3        30.02R
LOS ALAMOS     CLOUDY    29  29 100 CALM      30.05R
SANTA FE       CLOUDY    31  30  96 N14       30.04R WCI  21
TAOS             N/A     28  16  59 N14       30.02R WCI  17
ANGEL FIRE     LGT SNOW  22  19  91 CALM      30.01R

$$
NMZ402-403-502-505>509-300500-
WESTCENTRAL MOUNTAINS/SOUTHWEST MOUNTAINS

CITY           SKY/WX    TMP DP  RH WIND       PRES   REMARKS
GALLUP         MOCLDY    34  30  85 SW3       30.08R
GRANTS         CLOUDY    33  33  97 SE5       30.08R WCI  29
SILVER CITY    FAIR      42  22  45 NW9       30.09R

$$
NMZ407-409-411-412-300500-
SOUTHERN DESERTS

CITY           SKY/WX    TMP DP  RH WIND       PRES   REMARKS
DEMING         FAIR      47  28  47 CALM      30.06R
LAS CRUCES     FAIR      46  29  52 NW5       30.05R
HOLLOMAN AFB   FAIR      43  37  79 W7        30.08R
ALAMOGORDO     FAIR      45  34  65 NW7       30.05R
T OR C         FAIR      44  30  57 NW9       30.05R

$$
NMZ519>523-300500-
CENTRAL VALLEYS/CENTRAL HIGHLANDS

CITY           SKY/WX    TMP DP  RH WIND       PRES   REMARKS
ALBUQUERQUE    CLOUDY    38  35  89 SE6       30.08R WCI  33
DOUBLE EAGLE   LGT SNOW  36  30  80 NE6       30.08R WCI  31
MORIARTY ARPT  CLOUDY    34  33  98 S14       30.07R WCI  24
CLINES CORNERS LGT SNOW  28  26  92 S7        30.04S VSB 1   WCI  21
BELEN          DRIZZLE   38  34  85 CALM      30.08S
SOCORRO        CLOUDY    39  36  89 CALM      30.09R

$$
NMZ524>526-539-540-300500-
SOUTHCENTRAL MOUNTAINS

CITY           SKY/WX    TMP DP  RH WIND       PRES   REMARKS
RUIDOSO        LGT RAIN  28  27  93 CALM      30.09R

$$
NMZ527>531-300500-
NORTHEAST HIGHLANDS/NORTHEAST PLAINS

CITY           SKY/WX    TMP DP  RH WIND       PRES   REMARKS
LAS VEGAS      CLOUDY    25  21  85 NE12      30.02R WCI  14
RATON          LGT SNOW  28  20  71 N21G32    29.99R WCI  15
CLAYTON        FOG       29  29 100 N26G38    29.96R VSB 3/4 WCI  14

$$
NMZ532>537-300500-
EASTCENTRAL PLAINS

CITY           SKY/WX    TMP DP  RH WIND       PRES   REMARKS
SANTA ROSA     FLURRIES  32  32 100 N6        30.07R WCI  26
TUCUMCARI      LGT SNOW  34  32  92 N22       30.03S FOG     WCI  22
CANNON AFB     MOCLDY    33  33 100 N22G31    30.00R WCI  21
CLOVIS AIRPORT CLOUDY    34  27  75 N28       29.99R WCI  20

$$
NMZ028-029-538-300500-
SOUTHEAST PLAINS

CITY           SKY/WX    TMP DP  RH WIND       PRES   REMARKS
ROSWELL        FAIR      40  31  70 N12         N/A  WCI  33
ARTESIA        FAIR      37  36  93 N9        30.10R WCI  31
CARLSBAD       FAIR      40  36  86 N14       30.08R WCI  32
HOBBS          FAIR      37  32  81 NW16G22   30.04S WCI  28


$$




USA.gov is the U.S. government's official web portal to all federal, state and local government web resources and services.